Maniitsoq,

12:01 PM -02 on April 21, 2018 (GMT -0200)
Maniitsoq

Weather History for BGMQ - September, 2013

Change the Weather History Date:

Sunday, September 22, 2013

  Actual Average Record
Temperature  
Mean Temperature 40 °F -  
Max Temperature 42 °F - - ()
Min Temperature 37 °F - - ()
Degree Days  
Heating Degree Days 26    
Moisture  
Dew Point 29 °F    
Average Humidity 67    
Maximum Humidity 87    
Minimum Humidity 53    
Precipitation  
Precipitation 0.00 in - - ()
Sea Level Pressure  
Sea Level Pressure 29.93 in    
Wind  
Wind Speed 10 mph ()    
Max Wind Speed 17 mph    
Max Gust Speed -    
Visibility 6.2 miles    
Events      
T = Trace of Precipitation, MM = Missing Value Source: Averaged Metar Reports

Daily Weather History Graph

Daily Weather History Graph

Search for Another Location

Airport or City:

Astronomy

Sep. 22, 2013 Rise Set
Actual Time 7:14 AM -02 7:32 PM -02
Civil Twilight 6:24 AM -02 8:22 PM -02
Nautical Twilight 5:22 AM -02 9:23 PM -02
Astronomical Twilight 4:09 AM -02 10:35 PM -02
Moon 7:40 PM -02 (9/22) 12:01 PM -02 (9/22)
Length of Visible Light 13h 57m
Length of Day
12h 17m
Waning Gibbous, 89% of the Moon is Illuminated
Sep 22
Waning Gibbous
Sep 27
Last Quarter
Oct 4
New
Oct 11
First Quarter
Oct 18
Full

Hourly Weather History & Observations

Time (-02) Temp. Windchill Dew Point Humidity Pressure Visibility Wind Dir Wind Speed Gust Speed Precip Events Conditions
12:20 AM 37.4 °F 31.4 °F 28.4 °F 70% 29.86 in 6.2 mi East 8.1 mph - N/A   Mostly Cloudy
12:50 AM 37.4 °F 31.4 °F 28.4 °F 70% 29.86 in 6.2 mi East 8.1 mph - N/A   Mostly Cloudy
1:20 AM 37.4 °F 31.4 °F 28.4 °F 70% 29.86 in 6.2 mi ENE 8.1 mph - N/A   Partly Cloudy
1:50 AM 39.2 °F 33.6 °F 26.6 °F 61% 29.86 in 6.2 mi East 8.1 mph - N/A   Scattered Clouds
2:20 AM 39.2 °F 32.0 °F 26.6 °F 61% 29.86 in 6.2 mi East 11.5 mph - N/A   Partly Cloudy
2:50 AM 39.2 °F 32.0 °F 26.6 °F 61% 29.86 in 6.2 mi East 11.5 mph - N/A   Mostly Cloudy
3:20 AM 37.4 °F 29.3 °F 26.6 °F 65% 29.83 in 6.2 mi East 12.7 mph - N/A   Mostly Cloudy
3:50 AM 39.2 °F 32.0 °F 26.6 °F 61% 29.86 in 6.2 mi East 11.5 mph - N/A   Mostly Cloudy
4:20 AM 39.2 °F 32.0 °F 26.6 °F 61% 29.86 in 6.2 mi East 11.5 mph - N/A   Mostly Cloudy
4:50 AM 39.2 °F 32.0 °F 26.6 °F 61% 29.86 in 6.2 mi East 11.5 mph - N/A   Mostly Cloudy
5:20 AM 39.2 °F 31.6 °F 26.6 °F 61% 29.86 in 6.2 mi East 12.7 mph - N/A   Mostly Cloudy
5:50 AM 39.2 °F 32.0 °F 24.8 °F 56% 29.86 in 6.2 mi East 11.5 mph - N/A   Mostly Cloudy
6:20 AM 39.2 °F 33.0 °F 24.8 °F 56% 29.86 in 6.2 mi East 9.2 mph - N/A   Mostly Cloudy
6:50 AM 39.2 °F 33.0 °F 26.6 °F 61% 29.89 in 6.2 mi East 9.2 mph - N/A   Mostly Cloudy
7:20 AM 39.2 °F 33.0 °F 26.6 °F 61% 29.89 in 6.2 mi East 9.2 mph - N/A   Mostly Cloudy
7:50 AM 39.2 °F 32.5 °F 24.8 °F 56% 29.89 in 6.2 mi East 10.4 mph - N/A   Mostly Cloudy
8:20 AM 39.2 °F 33.0 °F 24.8 °F 56% 29.89 in 6.2 mi East 9.2 mph - N/A   Partly Cloudy
8:50 AM 39.2 °F 33.0 °F 26.6 °F 61% 29.89 in 6.2 mi East 9.2 mph - N/A   Scattered Clouds
9:20 AM 39.2 °F 33.0 °F 26.6 °F 61% 29.89 in 6.2 mi East 9.2 mph - N/A   Mostly Cloudy
9:50 AM 39.2 °F 33.0 °F 26.6 °F 61% 29.89 in 6.2 mi East 9.2 mph - N/A   Scattered Clouds
10:20 AM 41.0 °F 34.3 °F 26.6 °F 57% 29.89 in 6.2 mi East 11.5 mph - N/A   Scattered Clouds
10:50 AM 41.0 °F 33.9 °F 26.6 °F 57% 29.89 in 6.2 mi East 12.7 mph - N/A   Mostly Cloudy
11:20 AM 41.0 °F 34.3 °F 26.6 °F 57% 29.89 in 6.2 mi East 11.5 mph - N/A   Mostly Cloudy
11:50 AM 41.0 °F 34.3 °F 26.6 °F 57% 29.92 in 6.2 mi East 11.5 mph - N/A   Mostly Cloudy
12:20 PM 41.0 °F 34.7 °F 26.6 °F 57% 29.92 in 6.2 mi ESE 10.4 mph - N/A   Scattered Clouds
12:50 PM 42.8 °F 37.0 °F 26.6 °F 53% 29.92 in 6.2 mi ESE 10.4 mph - N/A   Partly Cloudy
1:20 PM 42.8 °F 37.0 °F 26.6 °F 53% 29.92 in 6.2 mi ESE 10.4 mph - N/A   Scattered Clouds
1:50 PM 42.8 °F 36.6 °F 28.4 °F 57% 29.92 in 6.2 mi SE 11.5 mph - N/A   Mostly Cloudy
2:20 PM 42.8 °F 36.2 °F 26.6 °F 53% 29.92 in 6.2 mi SE 12.7 mph - N/A   Overcast
2:50 PM 39.2 °F 31.6 °F 33.8 °F 81% 29.95 in 6.2 mi SSW 12.7 mph - N/A   Mostly Cloudy
3:20 PM 39.2 °F 33.0 °F 33.8 °F 81% 29.95 in 6.2 mi South 9.2 mph - N/A   Mostly Cloudy
3:50 PM 41.0 °F 38.0 °F 30.2 °F 65% 29.95 in 6.2 mi SE 4.6 mph - N/A   Mostly Cloudy
4:20 PM 39.2 °F 33.6 °F 32.0 °F 75% 29.95 in 6.2 mi SSE 8.1 mph - N/A   Mostly Cloudy
4:50 PM 39.2 °F 33.6 °F 33.8 °F 81% 29.98 in 6.2 mi SE 8.1 mph - N/A   Mostly Cloudy
5:20 PM 39.2 °F 33.6 °F 33.8 °F 81% 29.98 in 6.2 mi SE 8.1 mph - N/A   Mostly Cloudy
5:50 PM 39.2 °F 32.5 °F 33.8 °F 81% 29.98 in 6.2 mi SE 10.4 mph - N/A   Mostly Cloudy
6:20 PM 39.2 °F 32.5 °F 35.6 °F 87% 29.98 in 6.2 mi SE 10.4 mph - N/A   Mostly Cloudy
6:50 PM 39.2 °F 33.0 °F 33.8 °F 81% 30.01 in 6.2 mi SE 9.2 mph - N/A   Mostly Cloudy
7:20 PM 41.0 °F 33.9 °F 32.0 °F 70% 30.01 in 6.2 mi ESE 12.7 mph - N/A   Mostly Cloudy
7:50 PM 41.0 °F 33.5 °F 30.2 °F 65% 30.01 in 6.2 mi ESE 13.8 mph - N/A   Overcast
8:20 PM 41.0 °F 33.5 °F 30.2 °F 65% 30.04 in 6.2 mi SE 13.8 mph - N/A   Mostly Cloudy
8:50 PM 41.0 °F 32.8 °F 32.0 °F 70% 30.04 in 6.2 mi SSE 16.1 mph - N/A   Overcast
9:20 PM 39.2 °F 30.2 °F 33.8 °F 81% 30.04 in 6.2 mi SSE 17.3 mph - N/A   Overcast
9:50 PM 39.2 °F 30.8 °F 35.6 °F 87% 30.04 in 6.2 mi SSE 15.0 mph - N/A   Overcast
10:20 PM 39.2 °F 31.2 °F 35.6 °F 87% 30.06 in 6.2 mi SE 13.8 mph - N/A   Overcast
10:50 PM 39.2 °F 31.6 °F 33.8 °F 81% 30.06 in 6.2 mi ESE 12.7 mph - N/A   Overcast
11:20 PM 39.2 °F 32.0 °F 33.8 °F 81% 30.06 in 6.2 mi East 11.5 mph - N/A   Mostly Cloudy
11:50 PM 41.0 °F 34.3 °F 33.8 °F 76% 30.04 in 6.2 mi ENE 11.5 mph - N/A   Mostly Cloudy